Location: Unspecified
(0.0000°N, 0.0000°E)
Time: 13:01:06
(UTC+00:00)

N. Korean satellite - Pass Details

Date: 18 June 2021
Orbit: 450 x 500 km, 97.2° (Epoch: 18 June)

Event Time Altitude Azimuth Distance (km) Brightness Sun altitude
Rises 04:02:45 0° 48° (NE) 2,562 11.4 -27.0°
Reaches altitude 10° 04:06:17 10° 85° (E) 1,693 10.2 -26.2°
Maximum altitude 04:07:18 11° 102° (ESE) 1,634 9.9 -25.9°
Drops below altitude 10° 04:08:20 10° 118° (ESE) 1,698 9.7 -25.7°
Enters shadow 04:11:09 - 150° (SSE) 2,353 10.1 -25.1°
